Location: Raven Hill Discovery Center
(45.1336°N, 85.0553°W)
Time: 07:23:08
(UTC-05:00)

Daily predictions for brighter satellites

Satellite Brightness Start Highest point End
(mag) Time Altitude Azimuth Time Altitude Azimuth Time Altitude Azimuth
Cosmos 2322 Rocket 3.5 18:43:41 10° NW 18:49:02 47° WSW 18:54:24 10° S
Meteor 1-28 Rocket 3.3 18:45:59 10° NNE 18:49:47 59° E 18:53:33 10° S
NOAA 12 4.2 18:44:54 10° SSE 18:50:05 56° ENE 18:55:18 10° N
FENGYUN 3A 4.4 18:46:30 10° SE 18:51:15 32° ENE 18:56:02 10° N
Tiangong 2 4.2 18:51:47 10° SW 18:52:26 10° SSW 18:53:06 10° SSW
Cosmos 407 Rocket 3.7 18:48:07 10° SSW 18:53:22 80° WNW 18:58:45 10° NNE
Genesis I 3.4 18:49:58 10° NNW 18:53:50 51° NE 18:57:40 10° SE
FREGAT/IRIS 3.4 18:51:38 10° SE 18:54:25 32° ENE 18:57:15 10° N
Okean 1-7 Rocket 4.5 18:51:49 10° NNE 18:55:47 29° ENE 18:59:43 10° SE
Cosmos 1536 Rocket 3.6 18:51:26 10° N 18:55:56 80° E 19:00:25 10° SSE
Cosmos 1484 Rocket 4.1 18:54:40 10° S 18:58:28 47° W 19:02:15 10° NNW
Cosmos 676 Rocket 4.0 18:55:13 10° SSW 19:00:25 84° ESE 19:05:41 10° NNE
Cosmos 1818 3.9 18:59:11 10° SW 19:04:37 72° NW 19:10:06 10° NNE
Cosmos 1633 2.6 19:01:37 10° S 19:05:13 56° E 19:08:51 10° NNE
Cosmos 1140 Rocket 3.5 19:02:16 10° S 19:07:18 60° ESE 19:12:24 10° NNE
METEOR-M 4.1 19:02:59 10° SSE 19:08:19 78° ENE 19:13:40 10° N
Cosmos 2322 3.8 19:03:15 10° NNW 19:09:01 88° ENE 19:14:44 10° SSE
Cosmos 1570 Rocket 4.1 19:04:00 10° NNW 19:09:08 54° ENE 19:14:16 10° SE
Cosmos 614 Rocket 4.1 19:05:41 10° S 19:10:33 48° ESE 19:15:25 10° NNE
ASTRO F (AKARI) 4.4 19:07:13 10° NNE 19:10:47 80° ESE 19:14:08 10° S
Meteor 1-19 Rocket 4.2 19:07:37 10° N 19:13:19 73° ENE 19:19:05 10° SSE
SJ-6B 2.8 19:11:19 10° SSE 19:15:15 66° ENE 19:19:08 10° N
TSX-5 4.0 19:17:33 10° SW 19:20:38 53° WNW 19:23:57 10° NNE
Cosmos 405 Rocket 4.1 19:18:18 10° NNE 19:21:29 21° ENE 19:23:33 15° ESE
USA 229 DEB 3.9 19:14:58 10° NW 19:22:02 61° NE 19:29:11 10° SE
USA 229 3.9 19:15:05 10° NW 19:22:08 61° NE 19:29:17 10° SE
Cosmos 1300 Rocket 3.5 19:19:03 10° S 19:23:28 80° E 19:27:55 10° N
Cosmos 2237 Rocket 3.3 19:20:11 10° N 19:24:58 26° NE 19:28:14 16° E
Okean 2 4.3 19:21:30 10° NNE 19:25:09 29° ENE 19:28:48 10° SE
Cosmos 2333 4.3 19:20:12 10° NNW 19:25:53 59° ENE 19:31:33 10° SE
Helios 1A 4.0 19:23:44 13° ESE 19:26:30 25° ENE 19:29:55 10° N
Cosmos 2237 4.2 19:20:53 10° NNW 19:26:41 83° ENE 19:32:23 10° SSE
COSMOS 2428 2.7 19:20:59 10° NNW 19:26:41 67° ENE 19:32:19 10° SE
Gbstr 26 Del rocket 2.6 19:22:57 10° SW 19:26:45 68° SSE 19:29:29 17° ENE
CZ-2D R/B 4.1 19:24:04 10° SE 19:27:22 29° ENE 19:30:42 10° N
H-2A R/B 3.2 19:25:09 10° SE 19:28:36 38° ENE 19:32:07 10° N
Helios 1B rocket 3.8 19:25:46 10° NE 19:28:45 19° E 19:31:43 10° SE
Spot 2 Rocket 3.7 19:23:54 10° SE 19:28:46 50° ENE 19:33:41 10° N
COSMO-SKYMED 1 4.0 19:26:47 10° N 19:30:51 40° WNW 19:34:55 10° SW
Meteor 2-4 Rocket 3.6 19:25:50 10° N 19:31:24 73° ENE 19:36:47 10° SSE
Cosmos 1238 Rocket 2.8 19:28:47 10° NNW 19:31:42 55° W 19:34:38 10° S
NOSS 8 (H) 4.4 19:30:22 10° SSW 19:33:41 61° SE 19:36:45 14° NE
Meteor 1-23 Rocket 4.3 19:28:38 10° N 19:34:25 64° ENE 19:40:07 10° SSE
USA 215 4.3 19:31:24 10° NE 19:37:21 39° NNW 19:43:19 10° W
Resurs 01 Rocket 1.6 19:33:09 10° SSE 19:37:29 60° ENE 19:41:50 10° N
SL-19 R/B 4.4 19:32:23 10° SSE 19:38:03 69° ENE 19:44:11 10° NNW
Cosmos 2360 Rocket 3.2 19:33:06 10° NW 19:38:31 49° WSW 19:43:56 10° S
ATLAS 2AS CENTAUR R/B 4.5 19:32:28 10° NW 19:38:40 23° NNE 19:43:50 13° ENE
Cosmos 2208 Rocket 4.1 19:33:23 10° NNW 19:38:53 87° ENE 19:44:17 10° SSE
Cosmos 2219 Rocket 2.4 19:33:39 10° NNW 19:39:05 49° ENE 19:43:37 15° SE
Cosmos 1850 Rocket 4.0 19:37:46 10° SSW 19:43:04 79° ESE 19:48:26 10° NNE
Cosmos 1536 2.7 19:40:26 10° S 19:44:25 85° E 19:48:25 10° N
Envisat 4.0 19:44:07 23° E 19:45:24 26° ENE 19:49:32 10° N
Cosmos 2219 3.2 19:40:43 10° SSW 19:46:24 68° ESE 19:52:07 10° NNE
HJ-1C 3.6 19:45:33 10° S 19:48:55 73° WSW 19:52:18 10° NNW
Cosmos 2227 Rocket 3.2 19:45:42 10° SSE 19:49:27 23° ESE 19:49:27 23° ESE
Resurs 1-3 3.5 19:46:01 10° SSE 19:50:22 69° ENE 19:54:45 10° N
NOSS 3-1 (C) 4.3 19:45:54 10° NNW 19:53:02 50° NE 19:57:53 24° ESE
SL-16 R/B 3.4 19:55:27 10° N 19:59:56 23° NE 20:00:38 22° ENE
Okean 1 Rocket 3.9 19:57:59 10° SSW 20:02:22 53° WNW 20:06:46 10° N
Cosmos 1892 Rocket 3.5 20:00:16 10° N 20:04:36 59° E 20:06:48 27° SSE
Cosmos 2074 Rocket 4.0 19:59:25 10° S 20:05:41 88° E 20:12:01 10° N
Spot 1 3.8 20:03:52 26° SSE 20:06:05 67° ENE 20:10:15 10° N
USA 186 3.4 20:09:28 21° N 20:09:28 21° N 20:10:35 10° N
SAR-Lupe-1 3.9 20:10:04 54° SE 20:10:46 75° ENE 20:14:22 10° N
Cosmos 2184 Rocket 4.0 20:04:40 10° S 20:10:59 88° W 20:17:17 10° N
Cosmos 1025 Rocket 3.5 20:06:47 10° NNW 20:11:08 62° W 20:15:27 10° S
SAR-Lupe-4 3.4 20:10:00 34° SSE 20:11:28 90° ENE 20:15:04 10° NNW
Cosmos 371 Rocket 4.5 20:09:02 10° N 20:12:36 26° NE 20:12:36 26° NE
ALOS 3.4 20:09:30 10° S 20:13:58 45° W 20:18:29 10° NNW
Cosmos 2333 Rocket 2.1 20:15:17 10° NNW 20:21:05 82° ENE 20:23:54 32° SSE
SJ-11-01 4.5 20:23:52 51° ENE 20:23:52 51° ENE 20:28:23 10° N
Cosmos 1980 3.6 20:18:41 10° NNW 20:24:21 71° ENE 20:26:08 44° SE
Cosmos 841 Rocket 3.9 20:19:53 10° N 20:24:32 41° NE 20:24:32 41° NE
Meteor 2-13 Rocket 4.3 20:19:30 10° S 20:25:34 82° E 20:31:42 10° N
Abrixas rocket 3.0 20:23:11 10° WSW 20:25:43 48° SW 20:25:43 48° SW
Nadezhda 3 Rocket 3.8 20:21:08 10° N 20:27:20 73° E 20:31:35 21° SSE
Cosmos 1544 Rocket 3.3 20:26:17 10° S 20:30:36 82° E 20:34:56 10° N
GEOS 3 Rocket 3.6 20:32:27 28° NE 20:35:22 87° NW 20:40:40 10° SW
Cosmos 1763 Rocket 3.4 20:31:18 10° NNW 20:36:23 63° ENE 20:36:23 63° ENE
Cosmos 2341 Rocket 4.0 20:31:18 10° S 20:37:32 61° E 20:43:50 10° NNE
NOSS 0 Rocket 4.0 20:32:59 10° NNW 20:39:08 75° WSW 20:42:06 32° SSE
Cosmos 2154 Rocket 3.9 20:33:56 10° S 20:40:17 84° E 20:46:39 10° N
Meteor 1-12 Rocket 4.4 20:57:57 10° SSW 21:03:57 79° W 21:09:54 10° N
Helios 1B rocket 3.7 21:00:19 10° N 21:04:14 40° WNW 21:08:07 10° SW
Cosmos 2237 Rocket 2.6 21:03:49 10° NNW 21:09:25 58° WSW 21:10:07 54° SW
Cosmos 1066 Rocket 4.3 21:06:39 10° NNW 21:12:17 69° W 21:12:17 69° W
Cosmos 2297 Rocket 4.3 21:07:40 10° SSW 21:08:19 14° SSW 21:08:19 14° SSW
USA 215 4.4 21:17:51 28° NNE 21:19:23 31° N 21:24:58 10° WNW
Cosmos 2219 Rocket 4.0 21:18:08 10° NW 21:22:44 27° WSW 21:25:25 19° SW
ERS-1 Rocket 4.1 21:25:14 38° NNW 21:25:14 38° NNW 21:28:23 10° NNW
Envisat 3.9 21:24:19 44° W 21:24:19 44° W 21:29:03 10° NNW
NOSS 3-1 (A) 4.0 21:18:18 10° NW 21:25:53 77° SW 21:26:48 70° S
ATLAS 2AS CENTAUR R/B 3.5 21:24:01 10° NNW 21:31:17 47° NNE 21:31:17 47° NNE
Cosmos 2227 Rocket 3.4 21:28:09 10° SW 21:31:29 35° WSW 21:31:29 35° WSW
SL-16 R/B 3.3 21:38:55 10° NNW 21:42:33 40° NW 21:42:33 40° NW
H-2A R/B 4.5 22:02:31 16° N 22:02:31 16° N 22:03:39 10° N
